Cloud_Cover
10 35 50 11 6 20 89 7 3 1 7 13 19 9 14 7 24 17 18 12 11 14 4 9 8 8 4 1 0 0 0 0 0 0 0 0 0 0 0 0 0 0 0
28 70 100 26 10 8 6 19 10 60 74 14 8 2 8 9 67 94 30 58 94 94 83 72 35 30 16 14 18 22 21 9 0 0 0 0 0 0 0 0 0 0 0
96 91 80 51 56 43 41 5 76 100 100 13 45 32 96 94 25 1 4 6 0 0 2 0 15 12 29 70 58 45 39 51 36 0 0 0 0 0 0 0 0 0 0
29 38 6 18 5 5 5 8 33 86 65 38 11 5 5 3 0 0 3 0 0 0 0 0 0 0 0 0 20 36 48 88 68 4 36 10 0 0 0 0 7 2 0
5 5 32 41 5 5 11 77 100 100 26 32 5 5 5 0 0 0 5 0 0 0 0 0 0 0 0 0 0 0 0 0 0 0 11 58 58 12 2 0 0 43 2
44 6 27 50 93 100 97 100 100 100 13 5 5 5 2 3 1 5 5 2 0 1 5 5 5 3 5 2 1 0 0 0 0 0 0 0 19 41 100 9 0 2 41
59 43 50 16 100 100 100 100 97 52 27 7 5 5 5 24 8 99 14 3 1 0 7 100 27 11 5 4 5 5 0 0 0 0 0 0 0 0 0 0 0 9 6
80 84 98 100 100 100 100 100 100 100 100 95 5 4 11 100 100 100 22 5 5 2 0 4 16 1 5 4 4 5 5 4 3 0 0 0 0 0 0 0 0 0 1
96 100 100 100 100 100 100 100 100 100 100 100 8 5 5 49 90 100 5 5 4 0 0 0 0 0 0 5 4 2 5 3 0 0 0 0 0 0 0 0 0 0 0
100 100 100 100 100 100 100 100 100 100 92 5 5 16 5 9 26 5 5 5 5 5 0 0 0 0 1 3 0 0 0 0 0 0 0 0 0 0 0 0 0 0 7
100 92 93 100 100 100 100 97 100 100 14 6 5 7 5 9 20 5 5 5 5 5 5 4 5 1 0 0 0 0 0 0 0 0 0 0 0 0 0 0 0 1 3
98 97 57 55 93 93 75 42 96 80 5 5 5 5 5 15 5 68 74 5 5 5 5 3 5 0 2 0 0 0 0 0 0 0 0 0 0 0 0 0 0 0 0
100 100 100 65 52 12 42 75 74 86 5 5 5 5 5 53 5 27 19 44 15 7 5 5 0 0 0 0 0 0 0 0 0 0 0 0 0 0 0 0 0 0 0
100 100 100 100 69 38 77 48 5 58 18 5 5 36 5 9 5 55 100 98 33 5 5 0 0 0 0 0 0 0 0 0 0 0 0 0 0 0 0 0 0 0 1
95 100 100 100 100 100 100 100 100 74 71 5 8 96 23 29 35 48 17 35 17 5 0 0 0 0 0 0 0 0 0 0 0 0 0 0 0 0 0 3 13 9 2
100 100 100 100 100 100 99 100 66 5 5 9 78 86 99 78 71 89 58 6 5 4 0 0 0 0 0 0 0 0 0 0 0 0 0 0 0 0 0 12 75 12 0
100 100 100 100 100 100 100 54 67 56 16 52 100 100 81 70 100 84 17 5 4 0 0 0 0 0 0 0 0 0 0 0 0 0 0 0 0 0 0 0 0 3 39
100 100 100 100 42 94 91 65 98 80 66 100 100 100 100 100 99 13 5 1 0 0 0 0 0 0 0 0 0 0 0 0 0 0 0 0 0 0 0 0 0 10 72
100 100 100 100 38 25 80 100 100 100 100 100 100 100 100 94 22 5 5 5 5 0 0 0 0 0 0 0 0 0 0 0 0 0 0 0 0 0 0 0 0 0 0
100 100 100 100 100 100 100 100 100 100 100 100 100 100 100 17 5 5 5 5 0 0 0 0 0 0 0 0 0 0 0 0 0 0 0 0 0 0 0 0 0 0 0
100 100 100 100 100 75 96 100 100 100 100 100 100 100 33 5 5 11 56 1 0 0 0 0 0 0 0 0 0 0 0 0 0 0 0 0 0 0 1 1 0 0 0
100 100 100 72 100 100 5 6 5 56 68 43 35 22 5 14 47 9 0 0 0 0 0 0 0 0 0 0 0 0 0 0 0 0 0 0 0 0 0 0 1 100 99
84 37 100 100 100 89 5 16 34 13 5 5 10 45 69 26 2 0 0 0 0 0 0 0 0 0 0 0 0 0 0 0 0 0 0 0 0 0 0 3 50 7 100
6 90 87 92 48 6 5 6 5 5 16 87 43 6 0 0 0 0 0 0 0 0 0 0 0 0 0 0 0 0 0 0 0 0 0 0 0 0 0 0 4 99 2
5 31 0 0 0 5 5 4 3 5 4 0 0 0 0 0 0 0 0 0 0 0 0 0 0 0 0 0 0 0 0 0 0 2 0 0 0 0 0 16 50 100 44
0 0 0 0 0 0 0 0 0 0 0 0 0 0 0 0 0 0 0 0 0 0 0 0 0 0 0 0 0 0 0 0 0 0 8 0 0 0 0 0 81 100 100